When you browse on this site, cookies collect data to enhance your experience and personalize the content and advertising you see.
Visit our Privacy Policy to learn more. By continuing to use the site, you agree to this use of cookies and data.
  • In Hungary
  • List of Countries
  • For 7 days
  • Water Temperature
  • Satellite Maps
  • Weather Map
  • News
  • Weather Widgets
  • user-avatar
    Login

    Hourly Weather Kopychincy

    Today, 21 November, Wednesday

    Time Temperature Precipitation Wind Pressure Humidity
    00:00 -4°C° 0 mm 5 mps 737 mmHg 89%
    01:00 -4°C° 0 mm 5 mps 737 mmHg 89%
    02:00 -3°C° 0 mm 4 mps 737 mmHg 91%
    03:00 -3°C° 0 mm 4 mps 737 mmHg 91%
    04:00 -3°C° 0 mm 4 mps 737 mmHg 92%
    05:00 -5°C° 0 mm 5 mps 737 mmHg 92%
    06:00 -5°C° 0 mm 5 mps 737 mmHg 92%
    07:00 -5°C° 0 mm 5 mps 737 mmHg 92%
    08:00 -5°C° 0 mm 5 mps 737 mmHg 91%
    09:00 -5°C° 0.1 mm 5 mps 737 mmHg 91%
    10:00 -5°C° 0.1 mm 5 mps 737 mmHg 90%
    11:00 -4°C° 0.1 mm 5 mps 737 mmHg 89%
    12:00 -4°C° 0.1 mm 5 mps 737 mmHg 89%
    13:00 -4°C° 0.1 mm 5 mps 737 mmHg 88%
    14:00 -4°C° 0.1 mm 5 mps 737 mmHg 88%
    15:00 -3°C° 0 mm 4 mps 737 mmHg 88%
    16:00 -3°C° 0 mm 4 mps 737 mmHg 89%
    17:00 -3°C° 0 mm 4 mps 737 mmHg 90%
    18:00 -4°C° 0 mm 4 mps 737 mmHg 91%
    19:00 -4°C° 0 mm 3 mps 737 mmHg 91%
    20:00 -4°C° 0 mm 3 mps 738 mmHg 92%
    21:00 -5°C° 0 mm 3 mps 738 mmHg 93%
    22:00 -5°C° 0 mm 3 mps 738 mmHg 93%
    23:00 -5°C° 0 mm 3 mps 738 mmHg 93%

    Tomorrow, 22 November, Thursday

    Time Temperature Precipitation Wind Pressure Humidity
    00:00 -6°C° 0 mm 3 mps 738 mmHg 94%
    01:00 -6°C° 0 mm 3 mps 738 mmHg 94%
    02:00 -5°C° 0 mm 2 mps 738 mmHg 95%
    03:00 -6°C° 0 mm 2 mps 738 mmHg 95%
    04:00 -6°C° 0 mm 2 mps 738 mmHg 95%
    05:00 -6°C° 0 mm 2 mps 738 mmHg 95%
    06:00 -6°C° 0 mm 2 mps 738 mmHg 95%
    07:00 -6°C° 0 mm 2 mps 739 mmHg 94%
    08:00 -6°C° 0 mm 2 mps 739 mmHg 94%
    09:00 -5°C° 0 mm 2 mps 739 mmHg 90%
    10:00 -4°C° 0 mm 2 mps 739 mmHg 87%
    11:00 -4°C° 0 mm 2 mps 739 mmHg 83%
    12:00 -3°C° 0 mm 2 mps 739 mmHg 81%
    13:00 -3°C° 0 mm 2 mps 739 mmHg 79%
    14:00 0°C° 0 mm 1 mps 739 mmHg 77%
    15:00 -1°C° 0 mm 1 mps 739 mmHg 81%
    16:00 -2°C° 0 mm 1 mps 739 mmHg 84%
    17:00 -3°C° 0 mm 1 mps 738 mmHg 87%
    18:00 -3°C° 0 mm 1 mps 739 mmHg 87%
    19:00 -3°C° 0 mm 1 mps 739 mmHg 87%
    20:00 -4°C° 0 mm 1 mps 739 mmHg 87%
    21:00 -5°C° 0 mm 0 mps 739 mmHg 86%
    22:00 -5°C° 0 mm 0 mps 739 mmHg 85%
    23:00 -5°C° 0 mm 0 mps 739 mmHg 85%

    Day after tomorrow, 23 November, Friday

    Time Temperature Precipitation Wind Pressure Humidity
    00:00 -5°C° 0 mm 0 mps 739 mmHg 84%
    01:00 -5°C° 0 mm 0 mps 739 mmHg 84%
    02:00 -5°C° 0 mm 0 mps 740 mmHg 83%
    03:00 -5°C° 0 mm 0 mps 740 mmHg 83%
    04:00 -5°C° 0 mm 0 mps 740 mmHg 82%
    05:00 -5°C° 0 mm 0 mps 740 mmHg 82%
    06:00 -5°C° 0 mm 0 mps 740 mmHg 81%
    07:00 -5°C° 0 mm 0 mps 740 mmHg 81%
    08:00 -5°C° 0 mm 0 mps 740 mmHg 80%
    09:00 -3°C° 0 mm 1 mps 740 mmHg 77%
    10:00 -1°C° 0 mm 1 mps 741 mmHg 74%
    11:00 0°C° 0 mm 1 mps 741 mmHg 70%
    12:00 0°C° 0 mm 1 mps 741 mmHg 71%
    13:00 +1°C° 0 mm 1 mps 741 mmHg 71%
    14:00 +1°C° 0 mm 1 mps 740 mmHg 71%
    15:00 0°C° 0 mm 1 mps 740 mmHg 74%
    16:00 -3°C° 0 mm 2 mps 740 mmHg 78%
    17:00 -4°C° 0 mm 2 mps 740 mmHg 81%
    18:00 -5°C° 0 mm 2 mps 740 mmHg 81%
    19:00 -5°C° 0 mm 2 mps 740 mmHg 82%
    20:00 -5°C° 0 mm 2 mps 740 mmHg 82%
    21:00 -5°C° 0 mm 2 mps 740 mmHg 82%
    22:00 -7°C° 0 mm 3 mps 740 mmHg 82%
    23:00 -7°C° 0 mm 3 mps 739 mmHg 82%

    24 November, Saturday

    Time Temperature Precipitation Wind Pressure Humidity
    00:00 -7°C° 0 mm 3 mps 739 mmHg 82%
    01:00 -7°C° 0 mm 3 mps 739 mmHg 83%
    02:00 -7°C° 0 mm 3 mps 738 mmHg 84%
    03:00 -7°C° 0 mm 3 mps 738 mmHg 84%
    04:00 -7°C° 0 mm 3 mps 737 mmHg 85%
    05:00 -6°C° 0 mm 2 mps 737 mmHg 85%
    06:00 -7°C° 0 mm 3 mps 737 mmHg 86%
    07:00 -7°C° 0 mm 3 mps 737 mmHg 86%
    08:00 -7°C° 0 mm 3 mps 736 mmHg 87%
    09:00 -6°C° 0 mm 3 mps 736 mmHg 85%
    10:00 -5°C° 0 mm 3 mps 736 mmHg 84%
    11:00 -4°C° 0 mm 3 mps 735 mmHg 83%
    12:00 -4°C° 0 mm 3 mps 735 mmHg 83%
    13:00 -2°C° 0 mm 3 mps 734 mmHg 83%
    14:00 -2°C° 0 mm 3 mps 734 mmHg 83%
    15:00 -2°C° 0 mm 3 mps 734 mmHg 86%
    16:00 -4°C° 0 mm 3 mps 733 mmHg 89%
    17:00 -5°C° 0 mm 3 mps 733 mmHg 92%
    18:00 -5°C° 0 mm 3 mps 733 mmHg 92%
    19:00 -4°C° 0 mm 2 mps 733 mmHg 92%
    20:00 -3°C° 0 mm 2 mps 733 mmHg 92%
    21:00 -3°C° 0 mm 2 mps 733 mmHg 92%
    22:00 -3°C° 0 mm 2 mps 732 mmHg 92%
    23:00 -2°C° 0 mm 2 mps 732 mmHg 92%

    25 November, Sunday

    Time Temperature Precipitation Wind Pressure Humidity
    00:00 -2°C° 0 mm 2 mps 732 mmHg 92%
    01:00 -2°C° 0 mm 2 mps 732 mmHg 92%
    02:00 -2°C° 0 mm 2 mps 732 mmHg 92%
    03:00 -1°C° 0.2 mm 2 mps 731 mmHg 92%
    04:00 -1°C° 0.2 mm 2 mps 731 mmHg 92%
    05:00 +1°C° 0.2 mm 1 mps 731 mmHg 93%
    06:00 +1°C° 0.5 mm 1 mps 731 mmHg 93%
    07:00 +2°C° 0.5 mm 1 mps 731 mmHg 94%
    08:00 +2°C° 0.5 mm 1 mps 731 mmHg 94%
    09:00 +2°C° 0.6 mm 1 mps 730 mmHg 95%
    10:00 +2°C° 0.6 mm 2 mps 730 mmHg 96%
    11:00 +2°C° 0.6 mm 2 mps 730 mmHg 96%
    12:00 +2°C° 0.1 mm 2 mps 730 mmHg 96%
    13:00 +3°C° 0.1 mm 2 mps 730 mmHg 96%
    14:00 +3°C° 0.1 mm 2 mps 730 mmHg 96%
    15:00 +3°C° 0 mm 2 mps 730 mmHg 96%
    16:00 +2°C° 0 mm 2 mps 730 mmHg 95%
    17:00 +2°C° 0 mm 2 mps 730 mmHg 95%
    18:00 +2°C° 0 mm 2 mps 730 mmHg 95%
    19:00 +2°C° 0 mm 2 mps 730 mmHg 95%
    20:00 +2°C° 0 mm 2 mps 730 mmHg 95%
    21:00 +1°C° 0 mm 2 mps 730 mmHg 95%
    22:00 +1°C° 0 mm 2 mps 730 mmHg 95%
    23:00 +1°C° 0 mm 2 mps 730 mmHg 95%

    26 November, Monday

    Time Temperature Precipitation Wind Pressure Humidity
    00:00 +1°C° 0 mm 2 mps 730 mmHg 95%
    01:00 +1°C° 0 mm 2 mps 730 mmHg 95%
    02:00 -1°C° 0 mm 2 mps 730 mmHg 95%
    03:00 -1°C° 0 mm 2 mps 730 mmHg 95%
    04:00 +1°C° 0 mm 2 mps 730 mmHg 95%
    05:00 +1°C° 0 mm 2 mps 730 mmHg 94%
    06:00 -1°C° 0 mm 2 mps 730 mmHg 94%
    07:00 -1°C° 0 mm 2 mps 730 mmHg 94%
    08:00 -1°C° 0 mm 2 mps 730 mmHg 93%
    09:00 +1°C° 0 mm 2 mps 730 mmHg 92%
    10:00 +1°C° 0 mm 2 mps 731 mmHg 91%
    11:00 +1°C° 0 mm 2 mps 731 mmHg 90%
    12:00 0°C° 0 mm 3 mps 731 mmHg 89%
    13:00 0°C° 0 mm 3 mps 730 mmHg 88%
    14:00 0°C° 0 mm 3 mps 730 mmHg 86%
    15:00 0°C° 0 mm 3 mps 730 mmHg 86%
    16:00 -1°C° 0 mm 3 mps 731 mmHg 85%
    17:00 -1°C° 0 mm 3 mps 731 mmHg 85%
    18:00 -1°C° 0 mm 3 mps 731 mmHg 85%
    19:00 -2°C° 0 mm 3 mps 731 mmHg 86%
    20:00 -2°C° 0 mm 3 mps 731 mmHg 86%
    21:00 -2°C° 0 mm 3 mps 732 mmHg 86%
    22:00 -3°C° 0 mm 4 mps 732 mmHg 87%
    23:00 -3°C° 0 mm 4 mps 732 mmHg 87%
    Show more